Wind_Speed
46 46 46 47 49 51 52 51 51 51 50 48 48 48 48 49 51 52 54 56 56 57 57 57 58 59 60 62 64 66 67 68 69 68 68 65 62 58 54 50 47 45 44 44 44 45 46 47 47 47 47 47 46 45 44 43 42 41 41 41 41 41 42 42 42 42 42 42 41 40 40 39 37 36 35 34 35 36 37 35 33 32 33 33 32 31
43 43 43 45 47 50 51 51 50 50 50 49 49 48 48 48 49 49 50 52 53 54 54 54 54 55 55 55 57 59 62 65 68 70 71 71 69 65 60 56 52 49 47 47 47 48 49 50 50 50 50 49 49 48 47 46 46 45 44 44 43 43 43 43 43 44 44 43 42 40 39 38 37 35 34 34 35 37 38 35 33 32 34 34 33 33
44 44 43 44 46 48 49 48 47 47 48 49 49 48 47 46 46 46 47 48 49 50 51 52 51 51 50 49 49 49 51 54 57 60 64 67 69 68 66 62 58 55 52 51 51 52 52 53 53 53 53 52 52 51 51 50 49 48 47 46 46 46 45 45 45 45 44 43 42 40 39 38 37 35 34 34 35 37 38 36 34 34 35 34 34 34
48 48 47 46 46 46 45 44 44 44 45 47 47 47 46 45 44 44 44 45 47 48 50 50 50 48 47 45 45 45 45 46 47 49 52 56 60 64 66 66 65 63 60 58 56 56 56 56 57 56 56 56 55 55 55 55 54 53 51 50 49 48 47 46 46 46 45 44 42 41 40 39 38 36 35 35 36 37 38 37 36 36 36 36 36 36
51 51 50 48 46 44 42 42 42 43 43 43 44 44 43 43 43 43 43 44 45 47 48 49 48 47 45 44 43 42 42 43 43 43 43 45 49 54 59 63 66 67 67 66 64 62 61 60 60 60 60 60 60 60 60 60 59 58 56 54 52 50 49 47 47 46 45 44 42 41 40 39 38 38 37 37 37 38 39 38 38 37 37 37 36 37
52 50 48 46 44 42 42 42 43 43 42 41 40 40 41 42 42 43 43 43 44 44 45 46 46 45 45 43 42 41 41 41 41 41 41 40 41 44 48 52 56 59 61 62 64 64 64 64 64 64 63 63 63 63 63 63 63 61 60 58 55 53 50 48 47 47 46 45 43 41 40 39 39 38 38 38 38 39 39 39 38 38 37 37 37 37
51 48 45 43 42 42 42 43 43 43 42 40 39 39 40 42 43 43 44 43 43 42 43 43 43 44 44 43 42 41 41 41 41 41 41 40 40 41 42 43 45 46 48 50 53 56 59 62 63 63 62 62 61 60 60 60 60 60 60 59 57 55 52 50 48 47 46 45 43 42 41 41 40 39 38 39 39 40 40 39 38 38 38 38 38 37
51 48 44 43 42 43 43 43 43 42 41 40 39 39 40 41 42 43 43 43 42 42 41 42 42 42 43 42 42 41 41 42 42 42 42 41 41 41 41 42 42 42 42 43 44 46 49 52 53 54 54 54 54 54 54 54 54 55 56 56 56 54 52 50 49 48 47 46 45 44 44 43 41 39 39 40 41 41 40 40 39 39 39 38 38 37
51 48 46 44 44 44 43 43 42 41 40 39 38 38 39 40 41 41 42 42 42 42 41 41 41 42 42 42 42 42 42 43 44 44 44 43 42 42 42 42 42 42 42 41 41 41 42 42 43 44 46 47 48 49 49 50 50 51 51 52 53 53 52 51 50 49 48 47 47 46 46 44 42 40 41 43 44 43 41 40 39 39 39 39 38 37
51 49 47 46 46 45 44 43 42 41 39 38 38 38 38 38 39 40 41 42 42 42 42 42 41 42 42 42 42 43 44 45 45 46 46 45 44 43 42 42 42 41 41 41 40 39 38 38 38 39 41 43 45 47 48 49 49 49 49 49 50 52 51 51 50 50 50 49 48 48 47 46 43 41 44 46 46 45 42 41 40 40 40 39 39 38
52 50 49 48 47 47 46 45 44 42 40 39 39 39 39 39 39 39 40 40 41 41 41 42 42 42 42 42 43 44 45 46 47 48 47 47 46 44 43 42 42 41 41 40 39 38 37 37 37 38 40 42 44 46 47 49 49 49 49 49 50 51 51 51 51 51 51 50 50 49 48 46 44 42 43 45 46 45 44 43 42 41 41 41 40 38
52 51 50 50 50 50 49 48 46 44 42 41 41 41 41 40 39 38 39 39 39 40 40 41 42 42 42 43 43 44 45 47 48 48 48 47 45 44 43 42 42 41 41 40 39 38 37 36 37 38 39 41 43 44 46 47 48 48 49 50 50 51 51 51 52 51 51 51 50 49 48 46 44 43 43 43 45 46 46 45 44 43 42 41 40 37
54 53 53 54 54 53 52 50 48 46 45 44 44 44 43 41 40 39 39 39 39 39 39 40 42 42 43 43 43 44 45 46 46 46 46 45 44 42 42 42 42 42 41 40 39 38 37 36 37 38 39 40 41 43 44 45 46 46 47 48 49 50 51 51 51 51 51 50 50 49 47 46 44 43 43 43 45 46 47 46 44 43 42 41 39 37
56 57 57 58 58 57 56 54 51 49 48 47 47 46 45 43 42 42 42 41 40 39 39 40 41 42 42 42 43 43 43 44 44 44 43 42 41 40 40 41 42 42 41 41 39 38 36 36 37 38 38 39 40 41 42 43 43 44 45 46 48 49 50 50 51 50 50 49 48 47 46 45 43 42 43 43 45 46 47 46 44 42 42 40 38 36
59 60 61 62 61 60 58 56 54 53 52 51 49 48 47 45 44 43 43 43 42 41 40 41 42 42 42 41 41 41 42 42 42 42 41 40 39 39 39 40 41 42 41 40 39 38 37 37 37 38 38 39 39 40 40 41 42 43 44 45 47 48 48 49 49 48 47 46 45 45 43 42 42 42 42 44 45 46 46 45 43 41 40 39 37 35
59 60 62 62 62 61 60 58 56 55 54 52 51 49 48 47 46 45 45 44 43 42 42 42 43 43 42 40 40 40 40 41 41 41 40 39 38 38 39 40 41 41 41 40 39 38 37 37 37 38 38 38 38 38 39 40 41 42 43 45 46 46 46 46 45 44 43 42 42 41 40 40 40 41 42 44 45 45 45 43 41 39 38 37 36 35
56 57 58 58 58 58 58 57 56 55 54 53 52 50 49 48 48 47 46 45 44 43 42 42 43 44 43 40 39 38 39 40 40 40 40 39 38 37 38 39 40 40 40 39 38 37 37 37 37 37 37 37 37 38 38 40 41 42 43 44 44 44 43 42 41 40 39 38 38 37 37 38 39 40 42 43 44 44 43 41 39 38 37 37 36 35
51 51 52 52 53 53 54 54 54 54 53 53 52 51 50 50 49 48 47 46 44 43 42 41 41 42 41 39 38 37 37 38 39 40 40 39 38 37 37 38 39 39 39 38 38 37 36 36 35 35 35 36 36 37 38 40 41 42 42 42 41 41 40 39 38 37 36 35 35 35 36 37 39 40 41 42 42 41 40 38 37 37 36 36 36 35
49 49 48 48 49 50 50 51 51 51 51 51 51 51 51 51 50 49 47 46 45 43 42 41 40 39 38 36 35 34 34 36 37 39 39 39 38 37 37 37 38 38 38 38 37 37 36 35 34 34 34 34 35 37 39 40 41 41 41 40 39 38 37 36 35 34 33 33 34 35 36 37 38 39 39 39 39 38 37 36 35 35 35 36 35 35
49 49 49 49 48 48 47 47 48 48 48 48 49 49 49 49 48 47 47 46 46 45 44 42 40 40 39 37 36 34 33 34 35 36 37 38 38 38 37 37 37 37 38 37 37 36 36 35 34 33 33 33 34 36 39 41 41 40 39 38 37 36 35 34 33 32 32 33 34 35 36 37 37 37 37 37 36 35 35 34 34 34 34 34 34 33
49 50 50 50 48 46 45 44 44 44 44 45 45 45 45 45 45 45 46 46 47 47 46 44 43 42 41 40 39 37 36 35 35 35 35 36 37 37 37 36 36 36 36 36 36 36 36 36 36 35 34 34 35 37 39 41 41 39 38 37 35 34 33 32 32 32 33 34 35 35 36 36 35 35 35 34 34 33 33 32 32 32 32 33 33 33
50 50 50 50 48 47 45 43 42 41 42 42 42 43 44 44 44 44 45 46 47 48 48 47 47 46 45 43 42 40 39 38 37 37 36 35 35 35 35 35 35 35 35 34 34 34 35 36 38 38 38 37 37 38 40 40 40 39 37 36 34 33 32 32 32 33 34 35 35 35 34 34 34 34 33 33 32 32 31 31 31 31 31 32 32 33
52 52 51 51 50 48 47 44 42 41 41 42 43 44 45 45 45 45 45 46 48 49 50 50 50 50 48 47 46 44 42 40 39 38 37 36 34 33 32 32 33 34 35 35 34 34 35 36 37 39 40 39 39 39 39 40 40 39 37 36 35 34 33 33 34 34 35 35 34 34 33 33 33 32 32 32 31 31 31 30 30 31 31 32 33 34
54 54 54 53 52 51 50 47 46 44 43 44 45 46 47 48 49 49 49 49 50 51 52 52 52 51 51 50 49 47 46 44 42 40 39 38 36 33 31 30 31 33 35 36 36 36 36 36 37 38 39 39 38 38 38 38 38 38 37 37 36 35 35 35 35 35 35 34 34 33 33 32 32 32 31 31 31 30 30 30 31 31 32 33 34 35
57 57 56 56 55 55 53 51 50 48 47 47 47 49 50 51 52 52 52 52 52 52 53 53 52 52 52 52 51 50 50 49 47 45 43 41 39 36 33 31 31 32 34 35 36 36 37 37 38 38 37 36 35 35 35 36 36 37 37 37 36 36 36 36 36 36 35 34 33 33 32 32 31 31 31 31 31 30 31 31 31 32 33 34 35 36
59 59 59 59 58 58 57 55 54 52 50 49 49 50 51 52 53 53 54 54 54 54 54 54 54 54 54 53 53 52 52 51 50 48 46 44 42 40 37 35 33 33 34 35 36 37 37 38 39 38 36 35 34 33 33 34 34 35 35 36 36 36 36 36 36 36 35 34 33 33 32 32 31 31 31 31 31 31 31 32 33 33 34 35 35 36
59 59 60 60 60 60 60 59 57 55 54 52 51 51 50 51 51 52 52 54 54 55 54 55 55 55 55 54 54 53 52 51 50 49 48 46 44 42 40 38 37 36 36 36 37 38 39 40 40 38 36 35 34 33 33 33 33 34 34 35 36 36 37 37 37 36 35 34 34 33 33 32 32 31 31 31 31 31 32 33 34 34 35 35 36 36
56 57 58 59 60 61 61 62 61 60 58 55 54 52 51 50 50 50 51 52 53 53 54 54 55 54 55 55 54 53 52 51 50 49 48 47 46 45 43 42 40 39 38 38 39 40 41 41 41 39 37 36 35 34 34 34 34 34 34 35 36 36 37 37 37 36 36 35 34 33 33 33 32 32 31 31 31 31 32 33 34 35 36 36 36 36
52 54 55 56 58 59 60 61 62 63 62 60 58 56 54 52 51 50 51 50 50 50 51 52 53 53 53 54 54 53 52 51 50 49 48 47 47 47 46 44 43 42 41 40 41 42 42 43 42 40 38 36 36 35 35 35 35 35 35 35 36 37 37 37 37 37 36 35 34 34 34 33 33 32 32 32 31 32 33 34 35 37 37 37 37 36
47 49 51 53 54 56 57 58 60 61 63 63 62 61 58 56 55 54 53 51 49 49 49 49 50 50 51 52 52 51 51 50 50 49 48 48 49 49 48 47 46 45 43 42 41 42 43 43 42 40 39 37 37 36 36 36 36 36 36 36 36 37 37 38 38 37 36 35 35 35 35 34 34 33 33 32 32 32 33 35 36 38 39 39 38 37
41 43 44 47 49 51 52 54 55 57 59 60 62 62 62 61 60 58 56 53 52 50 49 48 48 48 49 49 49 49 49 49 49 49 48 48 49 50 49 48 48 47 46 44 43 42 43 44 43 41 40 39 38 37 37 37 37 37 36 37 37 37 38 38 38 37 37 36 36 35 35 35 35 34 33 33 33 33 33 35 37 39 40 40 39 38
36 37 39 41 43 45 47 49 50 52 53 55 57 59 60 61 62 61 60 58 56 54 52 50 49 48 47 48 48 48 48 48 47 47 48 48 49 50 50 50 49 49 48 47 46 44 44 44 44 43 41 40 40 39 39 38 38 38 38 38 38 38 38 38 38 38 37 36 36 36 36 36 36 35 34 34 33 33 33 35 37 39 40 40 39 38
32 33 34 36 37 39 41 43 45 47 48 50 51 53 55 57 59 61 62 62 61 59 57 55 52 50 49 48 48 48 48 47 46 46 46 47 48 49 49 50 50 49 49 48 48 47 46 46 45 44 43 42 42 41 40 40 39 39 39 39 39 39 39 39 39 38 37 37 36 36 36 36 36 36 35 34 33 33 33 34 36 38 40 41 40 39
27 28 29 30 31 33 35 37 39 41 43 45 46 48 50 52 54 56 59 61 62 62 61 60 58 55 53 51 49 48 47 46 46 45 45 45 46 47 48 49 49 49 49 48 48 48 48 47 46 45 45 44 43 42 41 41 40 40 40 40 40 40 40 40 39 38 38 37 37 37 37 37 37 37 36 35 34 33 33 35 36 38 40 41 41 40
23 23 24 25 26 27 29 30 32 35 37 39 41 43 45 46 48 51 53 56 58 60 62 62 62 61 59 57 54 51 49 48 47 47 46 46 46 46 46 47 48 48 48 47 47 47 48 48 48 47 46 45 45 44 43 42 41 41 41 41 41 41 40 40 40 39 38 37 37 37 37 37 37 37 37 35 34 34 34 35 36 38 40 41 41 39
19 20 20 21 22 23 24 25 26 28 30 32 35 37 39 41 43 45 47 50 53 56 58 60 62 63 63 62 60 57 54 52 50 50 49 48 48 47 46 46 46 46 46 46 46 46 47 47 48 48 48 47 46 45 44 43 43 42 41 41 41 41 41 41 40 39 38 38 37 37 38 38 38 38 37 36 35 34 35 36 37 39 40 41 40 38
16 17 17 18 19 20 20 21 22 23 25 27 29 31 33 35 37 40 42 44 47 50 53 56 59 61 63 64 64 63 61 58 56 55 54 53 52 50 49 47 46 45 45 45 45 45 45 45 46 47 48 48 48 47 46 45 44 43 42 42 41 41 41 41 41 40 39 38 38 38 38 38 38 38 37 36 36 35 36 37 38 39 40 39 38 36
13 14 14 15 16 17 18 19 19 20 22 23 25 26 28 30 32 34 36 39 41 44 47 50 53 56 59 62 64 65 65 64 62 61 60 59 57 55 53 50 48 46 46 46 45 44 44 44 44 45 46 48 48 48 47 46 45 44 44 43 42 41 41 41 41 40 40 39 38 38 38 38 38 38 38 37 37 37 38 38 39 39 40 38 36 34
10 11 12 13 13 14 15 16 17 18 19 20 21 23 24 26 28 30 32 34 36 39 41 44 47 50 54 56 59 62 64 65 66 66 66 65 63 61 59 56 53 50 49 47 47 46 45 45 44 44 44 45 46 47 47 47 46 45 45 44 43 42 41 41 41 41 40 39 39 39 39 39 39 39 39 39 39 40 40 40 40 40 40 39 37 36
9 9 10 10 11 12 13 14 15 15 16 17 19 20 21 23 25 27 28 30 33 35 37 40 42 45 48 51 54 57 60 62 64 66 67 67 67 66 64 62 60 56 53 51 50 49 48 47 46 45 44 44 44 44 45 46 46 46 46 45 44 43 42 41 41 41 41 40 40 40 40 40 40 40 40 40 41 41 41 41 41 41 41 40 40 39
10 9 9 8 9 9 11 12 12 13 14 15 16 17 18 20 22 23 25 27 29 31 34 36 38 41 44 46 49 52 54 57 59 61 62 64 66 67 67 67 65 62 60 57 55 53 51 50 48 47 46 45 44 43 44 44 45 46 47 46 45 44 42 41 40 40 41 41 41 41 40 41 41 41 41 41 41 41 41 41 41 42 42 42 42 42
12 11 10 9 9 9 9 10 10 11 12 13 14 15 16 17 19 20 22 24 26 28 30 32 34 37 39 41 44 46 49 52 54 56 58 60 61 63 65 66 66 66 65 63 61 58 56 53 52 50 48 46 45 44 43 43 44 45 46 47 47 46 44 41 40 40 40 41 41 41 41 41 41 41 41 41 41 41 41 41 41 42 42 42 42 42
13 13 12 11 11 10 10 10 10 10 11 11 12 13 14 15 16 18 20 21 23 25 27 29 31 33 35 37 39 41 44 47 50 52 54 56 57 57 58 60 62 64 65 65 64 63 61 58 56 54 51 50 48 46 45 43 43 44 45 47 47 46 44 42 41 40 40 41 41 42 42 41 41 41 41 41 41 41 41 41 41 41 41 42 42 42
14 14 14 14 13 13 13 13 12 12 11 11 12 13 13 14 15 16 17 19 20 22 23 25 28 30 32 34 35 37 39 41 44 46 49 51 52 53 53 53 55 58 60 63 64 64 64 62 60 58 56 54 52 50 48 45 44 43 44 45 46 46 45 44 42 41 41 41 41 42 42 42 41 41 41 41 41 41 41 40 40 40 40 41 41 41
16 16 16 16 16 16 16 15 15 14 14 14 14 14 14 14 15 16 16 17 18 19 20 22 24 26 28 30 32 33 35 36 38 41 43 45 47 49 49 50 50 52 55 58 61 63 63 63 63 62 60 58 56 54 51 48 46 44 44 45 45 46 46 45 43 42 41 41 42 42 42 42 41 41 41 42 42 42 41 41 40 40 40 41 41 41
18 18 18 18 18 18 18 17 17 17 17 17 17 17 17 16 16 16 17 17 18 18 19 20 21 23 25 27 28 29 30 33 34 36 38 41 43 45 47 48 49 50 52 54 57 60 61 62 62 62 62 61 60 58 55 52 48 46 45 45 45 45 45 44 43 42 42 42 43 43 43 43 42 42 42 42 43 42 42 41 40 40 40 41 41 41
21 20 20 20 20 20 20 20 20 19 19 19 19 19 19 19 18 18 18 19 19 19 19 19 20 21 23 24 24 25 27 29 31 32 34 36 39 41 44 46 48 50 51 51 52 54 57 59 60 60 60 60 60 60 58 55 52 49 47 46 46 46 45 43 42 42 42 42 43 44 45 44 44 43 43 43 43 43 42 42 41 41 41 41 41 40
23 23 23 23 23 23 23 23 22 22 22 22 22 21 21 21 21 21 20 20 20 20 20 20 20 21 22 22 22 23 25 27 28 29 30 32 35 37 40 43 45 47 49 50 50 51 53 55 56 57 58 58 59 59 60 58 56 52 49 48 47 47 47 44 42 41 41 42 43 45 46 47 46 46 45 44 44 44 44 43 42 42 41 41 41 40
24 25 25 25 25 25 25 25 25 25 25 25 24 24 23 23 23 23 23 22 21 21 21 21 21 21 22 22 22 23 24 25 26 27 28 29 31 33 36 39 42 45 47 48 50 51 52 53 54 55 56 57 57 58 59 59 58 55 52 50 49 49 48 46 43 41 40 41 43 45 47 48 48 47 46 46 46 46 45 44 43 43 42 42 41 41
26 26 26 27 27 27 27 27 27 27 27 27 27 26 26 26 25 25 25 24 23 23 23 22 22 22 22 23 23 23 24 25 25 26 27 28 29 30 32 35 38 41 44 46 48 50 51 51 52 53 55 56 56 57 57 58 58 57 54 52 51 50 50 49 46 43 40 40 41 44 47 49 50 50 49 48 47 47 46 46 45 44 43 43 42 42
27 27 28 28 28 28 28 29 29 29 29 29 29 28 28 28 28 27 27 26 25 24 24 23 23 23 23 24 24 24 24 24 25 26 27 28 28 29 30 32 34 37 40 43 46 48 49 50 52 52 53 54 55 56 56 56 57 56 55 54 53 51 51 50 49 46 43 40 40 42 46 49 51 53 52 51 50 49 48 48 47 46 45 44 43 43
Wind_Direction
271 272 273 275 276 276 276 275 273 272 271 270 269 268 267 267 266 265 264 261 258 257 257 258 258 256 253 248 244 241 240 240 241 242 243 244 244 242 239 237 237 237 238 239 239 239 239 238 237 236 235 236 237 237 237 238 240 241 243 246 248 251 253 255 256 258 260 262 263 265 267 270 272 273 273 273 272 270 267 265 269 276 283 286 288 290
271 271 273 274 276 277 277 275 273 271 271 270 270 269 269 269 269 268 266 264 261 260 260 261 262 262 262 260 257 254 251 249 248 248 248 248 247 245 242 238 237 237 238 237 237 237 236 236 235 234 234 235 237 238 239 239 240 242 244 246 248 251 253 255 257 259 261 262 262 263 264 266 268 270 270 270 270 268 266 266 269 275 280 284 286 289
270 270 271 272 274 276 276 274 272 271 270 270 270 270 269 269 268 268 267 265 264 263 263 263 264 265 266 267 266 264 261 258 256 254 253 252 250 248 245 241 239 238 239 239 238 237 236 235 235 234 234 235 236 238 240 241 243 244 246 248 250 252 254 256 257 259 261 262 262 262 263 264 265 266 267 267 267 267 266 267 271 275 278 282 285 287
268 269 269 271 272 272 271 270 269 268 269 270 270 269 268 267 267 266 266 266 265 265 265 265 266 267 267 268 268 267 266 265 262 260 257 254 252 249 247 244 242 241 242 242 241 240 239 239 238 237 237 237 238 239 241 243 245 247 249 250 252 254 255 256 257 258 260 261 262 263 263 262 262 263 264 263 263 264 265 267 270 274 277 280 283 285
266 267 269 269 269 267 264 264 264 264 266 267 268 267 266 265 264 264 264 264 264 264 265 266 267 268 268 268 267 267 267 267 266 264 262 258 254 250 248 247 246 246 246 246 246 245 244 244 243 242 242 242 243 244 245 246 248 249 251 252 254 255 256 256 257 258 259 260 262 262 262 261 261 261 262 262 262 262 263 265 268 272 275 278 281 283
265 266 267 267 265 262 260 259 260 260 261 262 263 263 263 262 262 262 262 262 262 262 263 264 266 267 268 268 268 268 268 268 268 268 267 264 261 257 254 252 251 251 251 251 250 249 248 247 247 247 247 247 248 249 250 251 251 251 252 253 254 255 256 256 257 257 259 260 261 262 261 261 261 261 261 261 261 261 262 264 267 270 273 277 279 281
262 263 262 262 260 258 257 257 258 257 257 258 258 259 260 260 261 261 260 260 260 260 261 262 264 265 266 267 267 267 268 268 268 268 268 268 267 265 263 261 259 258 257 256 254 252 250 249 248 248 248 249 250 252 252 253 253 252 252 252 253 255 256 256 257 257 259 259 260 261 262 262 262 262 262 261 261 262 263 265 267 270 273 275 277 278
259 259 257 256 255 255 256 256 256 256 255 256 257 258 259 260 260 260 260 259 259 259 260 261 262 263 263 264 265 266 267 267 268 268 268 268 268 268 267 265 263 262 261 259 257 253 249 247 246 246 246 247 249 251 252 253 252 252 251 251 252 253 254 255 256 257 258 259 260 261 262 262 262 262 262 262 261 262 264 265 267 269 272 274 275 276
257 255 253 252 253 253 254 254 254 254 254 255 256 258 259 260 260 260 259 258 258 258 258 259 260 261 262 262 264 265 266 267 267 267 267 267 267 267 266 264 262 259 258 256 254 250 246 244 243 243 244 245 247 248 249 250 250 250 250 250 251 252 253 254 255 257 258 259 260 261 262 263 261 260 261 261 260 261 263 265 266 268 270 272 273 274
255 252 250 250 251 252 253 253 252 252 252 254 255 257 259 259 260 259 258 257 257 257 258 259 259 260 261 262 263 264 265 266 267 267 267 267 267 266 264 261 258 255 252 250 248 246 244 244 244 244 245 245 246 246 247 247 247 248 248 250 251 251 252 252 254 255 257 259 260 261 262 263 261 260 261 260 260 261 263 264 266 267 269 270 271 272
252 251 250 251 252 253 253 253 252 251 250 251 253 255 257 258 258 258 258 257 257 258 258 259 259 260 261 262 263 264 265 266 266 266 266 266 265 264 262 258 254 251 248 247 245 244 244 245 246 247 247 247 247 246 246 246 246 247 248 250 250 251 251 251 253 254 256 258 259 260 262 262 262 260 260 260 261 262 263 264 265 267 268 269 269 269
252 251 252 253 254 254 253 252 251 250 250 250 251 253 255 256 257 258 258 258 259 259 260 260 260 261 261 262 262 263 264 264 264 264 264 263 262 261 259 256 252 250 247 246 244 244 245 246 248 248 249 248 248 248 248 247 248 248 250 250 251 251 251 251 252 253 255 256 258 259 261 261 261 260 260 259 261 263 263 263 264 265 267 267 266 265
254 254 254 254 254 253 252 251 249 249 249 250 251 253 255 256 257 258 259 260 260 261 261 262 261 261 261 261 261 261 261 261 261 261 260 259 258 256 255 253 251 249 247 245 245 244 245 246 248 249 250 250 250 250 250 250 250 250 251 251 251 251 251 252 252 253 254 256 257 258 259 259 259 259 259 259 260 262 262 262 262 263 264 263 261 260
255 255 254 253 251 250 249 248 247 247 246 246 247 248 250 252 254 256 258 260 261 262 263 263 263 262 261 259 259 258 258 258 257 257 256 254 253 252 251 250 249 247 246 245 244 244 245 247 249 250 251 251 252 252 252 251 251 251 251 251 251 251 251 251 252 252 253 254 255 256 257 257 257 257 257 258 259 260 260 261 261 261 260 259 257 255
252 251 250 248 247 245 245 244 244 244 244 244 244 244 245 247 248 250 253 256 258 260 261 262 263 262 261 259 257 256 255 254 254 253 251 250 249 248 248 248 246 245 244 243 243 244 246 248 250 251 252 252 251 251 251 251 250 250 249 249 249 249 249 249 250 250 251 252 252 253 253 254 254 255 256 257 257 258 259 260 259 257 256 254 253 251
244 243 242 241 240 240 239 239 240 241 242 243 244 245 246 246 247 248 249 250 252 253 255 258 260 261 260 258 256 254 252 251 250 249 249 247 246 246 246 245 244 243 242 241 242 243 245 247 249 250 251 250 250 249 249 248 248 247 247 247 247 247 247 247 247 247 247 248 248 249 250 251 252 254 255 256 257 258 258 258 255 252 250 249 248 247
237 236 235 234 233 233 234 235 237 238 240 242 243 245 246 247 247 248 248 249 249 249 250 251 253 256 258 258 256 253 251 250 249 247 246 245 244 244 244 243 242 241 239 239 240 241 242 244 245 246 247 247 247 247 246 246 245 245 245 245 244 244 243 243 243 243 243 243 244 246 247 250 252 253 255 256 256 256 256 254 251 248 246 244 243 242
235 233 232 230 229 230 231 233 236 238 240 240 241 243 244 245 245 245 246 246 246 246 246 246 246 248 251 254 256 254 252 252 250 248 246 244 243 242 242 242 241 239 238 237 237 238 238 239 240 242 243 243 243 243 243 243 244 243 243 242 241 240 240 239 238 238 239 240 242 245 247 250 252 253 254 254 254 253 252 250 247 244 242 241 239 238
239 237 235 233 232 233 234 235 236 237 238 238 239 239 240 241 241 241 241 241 242 242 241 241 240 240 240 242 246 248 250 252 252 251 249 247 244 241 241 242 241 239 238 236 236 235 235 235 236 238 239 239 239 239 240 241 242 241 240 239 238 236 235 235 235 235 237 240 243 246 248 250 251 252 252 252 251 250 249 247 245 242 240 238 236 234
243 241 239 238 236 235 234 233 233 233 232 233 234 235 235 235 235 235 235 236 237 238 238 237 236 236 236 236 236 237 240 243 247 250 251 250 248 245 243 243 242 241 239 238 236 234 233 233 234 235 237 237 236 237 238 239 240 239 237 236 234 233 232 232 234 236 238 241 244 246 247 248 249 249 249 249 248 248 247 246 243 240 237 235 232 230
243 242 241 240 237 234 230 227 225 225 225 227 228 229 230 230 230 230 231 232 234 236 237 236 235 235 236 236 236 236 236 237 239 243 247 250 250 249 247 246 245 243 242 240 238 237 235 234 234 235 236 236 236 236 237 238 238 237 235 234 232 232 232 233 235 237 240 242 243 244 245 245 246 246 246 246 246 246 245 243 240 237 234 230 228 226
241 241 240 239 236 232 228 223 220 219 220 221 223 225 226 227 227 227 228 230 232 234 235 235 236 237 237 237 238 238 239 238 238 240 242 245 248 250 250 249 248 246 244 242 240 239 239 238 237 237 236 235 235 235 236 237 237 236 235 234 233 233 233 234 236 238 239 240 241 241 242 242 243 243 244 244 244 243 242 239 236 232 229 226 224 224
241 239 239 238 236 233 229 225 222 220 219 220 222 224 226 227 227 228 228 230 231 233 235 236 237 238 238 238 238 239 240 241 241 241 241 242 244 247 249 250 250 249 247 244 242 241 240 241 241 240 238 236 234 234 234 235 236 236 235 235 234 234 234 235 235 236 237 238 238 238 239 240 240 241 241 241 241 240 238 235 232 228 225 223 222 224
245 243 240 238 236 234 232 229 226 223 222 222 224 226 228 229 230 230 231 231 233 234 235 237 238 238 239 239 240 240 241 242 242 243 243 241 241 242 244 247 249 250 249 246 244 241 240 241 243 242 240 236 234 233 234 234 235 235 235 234 234 233 233 233 234 234 234 235 235 236 236 237 238 238 238 238 238 237 234 231 227 224 222 221 222 226
253 250 246 243 240 237 235 232 230 227 225 225 225 227 228 230 231 233 233 234 234 235 236 237 238 240 241 241 242 242 243 243 244 244 244 242 240 239 239 241 244 247 247 245 243 241 240 241 243 243 240 236 234 233 234 234 234 234 233 233 232 232 231 231 232 232 232 232 233 233 234 235 235 235 236 236 235 234 231 227 224 222 221 221 223 227
259 257 254 251 247 243 240 237 234 232 230 229 228 228 229 231 233 234 235 236 236 237 238 239 240 241 242 243 244 244 245 245 245 246 245 242 239 237 235 236 238 241 243 242 241 240 240 242 243 242 239 235 234 234 234 234 234 233 232 231 231 230 230 229 229 230 230 230 231 231 232 233 233 233 233 233 232 231 229 226 223 221 220 222 225 228
263 262 260 258 255 252 248 244 241 238 236 234 233 232 232 232 233 234 236 237 238 238 239 240 241 242 243 244 244 244 245 245 246 245 244 241 238 235 233 233 233 236 238 239 239 239 240 242 243 241 238 235 234 234 234 234 233 232 231 230 229 229 228 228 228 228 228 229 229 230 230 231 231 231 231 231 230 229 227 225 223 221 221 223 225 228
266 265 264 263 261 258 256 252 249 246 243 241 239 237 236 235 235 235 235 237 237 238 239 239 240 241 242 242 243 243 244 244 244 244 243 240 237 234 232 231 231 232 235 236 237 238 239 241 242 241 238 235 234 234 234 233 233 232 231 230 229 228 228 227 227 227 227 228 228 229 229 229 229 229 229 229 228 227 226 225 223 222 222 223 224 226
267 267 266 265 264 263 261 259 257 254 252 249 247 244 242 240 238 237 236 236 236 236 236 237 237 237 238 239 240 241 241 241 241 241 240 238 236 234 233 231 230 231 232 233 235 236 237 239 240 240 238 236 235 234 234 234 233 232 231 230 229 228 228 227 227 227 227 227 227 228 228 228 228 228 228 227 227 226 226 225 223 222 222 222 223 224
269 268 267 267 266 265 264 263 262 260 258 257 255 253 249 246 244 241 239 237 236 235 234 233 232 232 232 233 234 235 236 237 237 237 237 235 234 234 233 232 231 230 231 232 233 234 236 237 238 238 238 237 236 236 235 235 235 234 233 232 231 230 229 228 228 228 227 227 227 227 227 227 227 227 226 226 226 226 225 225 223 222 220 220 221 222
271 270 269 268 267 266 266 265 264 263 262 261 260 258 256 253 251 248 244 241 238 236 234 231 229 228 227 227 227 227 228 230 232 232 232 231 232 233 233 232 231 231 231 231 231 232 234 235 236 237 237 237 237 237 237 237 237 236 235 234 233 232 231 230 230 229 228 228 227 227 226 226 226 226 225 225 225 225 225 225 223 221 219 218 218 219
272 271 269 268 267 267 266 266 266 265 264 264 262 261 260 258 256 253 251 247 244 240 237 234 230 228 226 224 224 223 223 223 225 226 227 227 228 230 231 231 231 231 231 231 231 231 231 232 233 234 235 236 237 238 238 238 238 238 237 236 236 235 234 233 232 231 230 228 227 226 226 226 226 225 225 224 224 224 225 224 223 221 218 216 215 215
275 273 271 270 269 268 267 266 266 265 265 265 264 263 262 261 259 257 255 253 250 247 243 240 236 232 229 227 225 224 223 221 220 222 223 224 226 227 228 229 230 231 231 231 231 231 231 231 232 232 232 233 234 235 237 238 239 239 238 238 237 237 236 236 235 233 231 229 227 226 225 225 225 224 224 223 223 224 224 224 223 220 217 215 213 212
278 276 274 273 271 269 268 267 266 265 265 265 264 264 263 263 261 260 258 256 254 252 250 247 243 240 236 233 230 227 225 222 221 222 223 224 225 226 226 227 228 229 230 230 230 231 231 232 231 231 231 231 232 232 234 235 237 238 238 238 238 238 238 237 237 235 233 230 228 226 225 224 224 224 223 222 222 223 223 223 222 220 216 213 211 210
280 279 277 275 274 272 270 268 267 266 265 264 264 264 263 263 262 261 260 258 256 255 253 251 249 246 243 240 236 233 229 227 226 227 228 228 228 227 226 225 226 227 227 228 228 229 230 231 231 231 231 230 230 231 231 232 234 235 237 237 238 238 238 238 237 236 234 231 228 226 225 224 223 223 222 222 221 221 222 222 221 218 214 211 209 208
280 278 276 274 273 271 270 268 267 265 264 264 263 262 262 262 261 261 260 259 258 257 255 253 251 249 247 245 242 239 236 233 232 233 234 234 234 232 230 227 225 225 226 226 227 227 227 228 229 230 230 230 230 230 230 231 232 233 235 236 237 237 238 238 237 236 234 232 229 227 225 224 223 223 222 221 221 220 220 219 218 215 211 208 206 206
278 275 272 270 269 268 268 267 265 264 263 262 261 261 260 260 259 259 259 259 258 257 256 255 253 251 250 248 246 243 241 238 237 238 239 239 239 238 236 232 228 227 227 228 227 226 226 225 226 227 228 229 229 229 229 230 230 231 232 234 235 236 237 237 237 236 234 232 229 227 226 224 224 223 223 222 220 219 218 216 214 211 208 204 203 204
278 274 272 269 268 266 266 265 264 263 261 260 260 259 259 258 258 257 257 257 257 257 256 255 254 253 252 250 248 246 245 243 242 242 242 242 242 242 241 238 234 231 230 230 230 229 227 226 225 224 225 226 228 228 228 228 229 229 230 231 233 234 235 235 235 234 233 231 229 227 226 225 224 223 222 221 219 217 214 212 210 207 204 201 200 202
281 278 275 273 271 269 267 266 265 264 263 262 261 259 258 257 257 256 256 256 255 255 255 254 254 253 252 251 250 248 247 246 246 246 246 246 245 245 244 242 240 236 234 233 233 233 232 230 227 225 224 223 224 225 226 226 227 227 228 229 230 230 231 232 232 232 231 229 227 226 225 224 223 222 222 220 219 216 213 210 207 205 202 200 200 203
287 283 280 279 276 273 271 270 269 268 267 265 263 262 260 258 257 256 256 255 255 254 254 253 253 252 252 251 250 250 249 248 247 248 248 248 248 247 246 245 244 241 239 237 237 236 236 234 231 228 226 224 223 222 222 223 224 225 225 225 226 227 228 229 229 229 229 227 225 224 223 222 222 221 221 220 219 217 215 212 209 206 204 202 201 203
292 289 287 285 283 280 278 277 277 275 272 269 267 265 263 260 258 257 256 256 255 255 254 254 253 252 251 251 250 250 249 249 248 249 249 250 250 250 249 248 247 245 243 242 241 240 239 238 235 232 230 228 226 224 222 221 221 222 222 222 223 223 224 225 226 226 226 225 224 222 221 221 221 220 220 219 219 218 217 214 211 209 206 204 203 204
295 295 295 293 291 288 287 286 285 283 279 276 274 271 269 266 263 260 258 257 256 256 256 255 254 253 251 250 250 249 249 248 248 248 249 250 250 251 250 250 249 248 247 246 245 243 241 240 238 236 234 232 230 229 226 224 221 220 220 220 220 220 219 219 221 223 223 223 223 221 220 219 219 218 218 217 217 216 215 214 213 211 208 206 205 206
294 297 298 298 297 296 295 294 293 292 291 288 285 281 279 276 272 267 263 260 258 258 258 258 256 255 253 252 250 249 248 248 248 248 248 249 250 251 251 251 251 250 249 249 248 246 244 242 241 239 237 235 234 233 231 228 226 223 220 219 218 216 214 214 216 218 220 221 221 220 219 218 217 216 216 215 214 214 213 213 212 212 210 208 208 208
293 295 298 299 299 299 299 299 299 300 300 298 294 291 290 287 283 277 272 268 264 262 261 260 259 258 256 255 253 251 250 249 248 248 248 248 249 249 250 250 249 249 249 249 249 247 246 245 243 242 240 239 238 236 234 232 230 228 224 221 218 215 213 212 212 213 216 219 220 220 219 217 216 214 213 213 212 212 212 212 212 211 211 210 209 209
292 294 295 297 297 298 298 299 300 301 302 300 298 298 297 295 292 287 282 277 273 270 267 265 264 262 260 258 256 254 252 251 250 249 248 248 248 248 248 247 246 246 246 247 247 247 247 246 245 245 244 243 242 240 238 235 233 232 229 225 221 217 214 212 210 210 213 215 218 219 219 217 215 213 212 211 210 210 210 211 211 211 211 210 210 210
292 293 294 294 295 295 296 297 298 299 299 299 299 299 299 298 295 292 288 285 281 277 273 271 269 266 263 261 259 257 255 253 251 250 249 248 247 247 246 246 245 244 244 244 245 245 245 245 245 246 246 246 244 243 240 238 236 234 232 229 226 222 217 213 210 209 211 213 215 217 218 217 215 213 211 210 210 210 210 211 211 212 212 211 211 211
290 291 292 293 294 294 295 296 296 297 297 297 298 299 299 298 296 294 291 289 286 282 278 275 272 269 266 265 264 262 258 255 253 251 250 249 248 247 246 245 245 244 244 243 243 242 242 243 244 245 245 246 246 245 243 240 238 236 235 232 229 226 222 217 213 210 210 212 214 216 216 216 215 213 212 211 210 210 210 211 211 212 213 213 212 212
289 290 291 292 293 294 295 295 296 296 297 297 298 298 298 297 296 295 293 291 288 285 281 278 274 270 268 268 267 265 262 259 256 254 251 250 249 248 247 246 245 245 244 243 241 240 239 239 240 241 242 243 244 245 244 243 241 239 237 234 232 229 226 223 218 213 212 212 213 215 215 216 215 214 213 212 211 211 211 211 211 212 213 213 213 213
288 290 291 292 293 294 295 296 296 296 296 297 298 298 298 298 297 296 294 292 290 286 283 279 275 272 269 268 267 265 264 263 261 257 254 252 250 248 247 246 246 245 244 243 241 239 238 236 236 236 237 239 240 242 243 243 242 240 238 236 233 231 228 226 223 219 215 214 214 215 215 216 216 215 215 214 213 213 212 212 212 212 213 213 213 213
289 290 292 293 294 294 295 296 296 296 296 297 297 298 298 297 297 296 295 294 291 288 285 282 278 274 270 267 265 264 263 263 262 261 258 255 253 250 248 247 246 246 246 244 242 240 238 236 234 234 234 234 235 237 239 240 241 240 239 237 234 232 229 227 226 223 221 218 216 215 216 216 216 216 216 216 215 215 214 214 213 213 213 213 213 213
289 291 292 293 293 294 295 295 296 296 296 296 297 297 297 297 296 296 295 294 292 290 287 285 281 277 272 268 264 262 261 261 262 262 262 260 257 254 250 248 246 246 246 245 244 242 240 237 234 232 231 231 232 233 234 236 238 238 237 236 234 232 230 228 227 226 225 223 220 218 217 216 217 217 217 217 217 216 216 215 215 215 214 214 214 214
Height
3025 3025 3026 3025 3025 3025 3025 3027 3028 3029 3030 3031 3032 3033 3034 3035 3036 3037 3037 3038 3038 3039 3040 3041 3041 3042 3043 3044 3045 3046 3046 3047 3048 3050 3051 3052 3053 3055 3057 3058 3059 3060 3061 3062 3063 3064 3065 3066 3067 3068 3069 3070 3071 3071 3072 3072 3073 3073 3074 3075 3076 3077 3078 3078 3079 3080 3080 3081 3081 3081 3082 3082 3083 3083 3084 3085 3085 3086 3086 3086 3086 3087 3087 3088 3088 3088
3022 3022 3023 3022 3022 3022 3022 3023 3025 3025 3026 3027 3028 3029 3031 3031 3032 3032 3033 3034 3035 3035 3036 3037 3037 3038 3038 3039 3040 3041 3042 3043 3044 3045 3046 3047 3048 3050 3052 3053 3054 3056 3056 3057 3058 3059 3060 3061 3062 3063 3065 3066 3067 3067 3068 3068 3069 3070 3070 3072 3072 3073 3074 3075 3076 3076 3077 3077 3077 3077 3078 3079 3079 3080 3081 3082 3082 3082 3083 3083 3083 3084 3085 3085 3086 3086
3019 3019 3019 3020 3020 3019 3019 3020 3022 3022 3023 3024 3025 3026 3027 3027 3028 3029 3029 3030 3031 3032 3032 3032 3033 3034 3034 3035 3036 3036 3037 3038 3039 3040 3041 3042 3043 3044 3046 3048 3049 3051 3052 3052 3053 3054 3055 3056 3057 3058 3060 3061 3062 3063 3064 3065 3065 3066 3067 3068 3069 3070 3071 3071 3072 3073 3074 3074 3074 3075 3075 3076 3076 3077 3077 3078 3079 3080 3080 3080 3081 3081 3082 3083 3083 3084
3016 3015 3015 3017 3017 3017 3016 3017 3018 3019 3020 3020 3021 3022 3022 3023 3023 3024 3025 3027 3027 3028 3028 3028 3028 3029 3029 3030 3031 3032 3033 3033 3034 3035 3036 3037 3038 3039 3041 3042 3044 3046 3047 3048 3049 3050 3051 3052 3052 3054 3055 3056 3057 3058 3059 3060 3061 3062 3063 3064 3065 3066 3067 3067 3068 3069 3070 3071 3072 3072 3072 3073 3073 3074 3074 3075 3076 3077 3077 3077 3078 3078 3079 3080 3081 3081
3012 3011 3012 3013 3013 3013 3014 3015 3016 3016 3017 3017 3017 3018 3018 3019 3019 3020 3022 3022 3023 3023 3024 3024 3024 3024 3024 3025 3026 3027 3029 3030 3030 3031 3031 3032 3033 3035 3036 3038 3039 3041 3042 3043 3044 3045 3047 3047 3048 3049 3050 3052 3052 3054 3055 3056 3057 3058 3059 3060 3061 3062 3063 3063 3064 3065 3066 3067 3068 3069 3069 3070 3070 3071 3072 3072 3073 3073 3074 3075 3075 3076 3077 3077 3078 3079
3007 3007 3008 3009 3010 3010 3011 3012 3012 3013 3013 3013 3013 3014 3015 3015 3016 3017 3017 3018 3019 3019 3019 3020 3020 3020 3020 3021 3022 3023 3024 3025 3026 3027 3027 3028 3029 3031 3032 3033 3035 3036 3037 3038 3040 3041 3042 3043 3044 3045 3046 3047 3048 3049 3050 3051 3052 3053 3055 3056 3057 3058 3059 3060 3060 3061 3062 3063 3064 3065 3066 3067 3067 3068 3069 3070 3070 3071 3071 3072 3072 3073 3073 3074 3075 3076
3003 3003 3005 3005 3006 3006 3007 3008 3008 3009 3009 3009 3010 3011 3011 3012 3012 3013 3013 3014 3015 3015 3015 3016 3016 3016 3017 3017 3018 3019 3020 3021 3022 3022 3023 3024 3025 3027 3028 3029 3030 3032 3033 3034 3035 3036 3037 3037 3038 3040 3041 3042 3043 3044 3045 3046 3047 3049 3051 3052 3053 3054 3055 3056 3056 3057 3058 3059 3060 3061 3062 3063 3064 3065 3065 3066 3067 3068 3068 3069 3069 3070 3070 3071 3072 3073
2999 3000 3000 3001 3002 3002 3003 3004 3004 3005 3006 3006 3006 3007 3007 3008 3008 3009 3009 3010 3010 3011 3011 3011 3012 3012 3012 3013 3014 3015 3016 3017 3017 3018 3019 3020 3021 3022 3023 3025 3026 3027 3028 3029 3030 3031 3031 3032 3033 3035 3036 3037 3038 3039 3040 3042 3043 3044 3046 3047 3049 3050 3051 3052 3052 3053 3054 3055 3056 3057 3058 3059 3060 3061 3062 3062 3063 3064 3065 3066 3067 3067 3067 3068 3069 3070
2995 2996 2997 2997 2997 2998 2999 2999 3000 3001 3002 3002 3003 3003 3004 3004 3004 3005 3005 3006 3006 3006 3007 3007 3007 3008 3009 3010 3011 3011 3012 3012 3013 3014 3015 3016 3017 3018 3019 3020 3022 3022 3024 3025 3026 3026 3027 3027 3029 3030 3031 3032 3034 3035 3036 3037 3039 3040 3042 3043 3044 3045 3047 3047 3048 3049 3050 3051 3052 3054 3055 3056 3057 3058 3058 3059 3060 3061 3062 3063 3064 3065 3065 3065 3066 3067
2991 2992 2992 2993 2994 2995 2995 2995 2996 2997 2999 2999 2999 2999 3000 3000 3000 3001 3001 3001 3001 3002 3003 3003 3003 3004 3005 3006 3007 3007 3008 3009 3010 3010 3011 3012 3013 3014 3015 3016 3017 3018 3019 3020 3021 3022 3022 3023 3024 3026 3027 3028 3030 3031 3032 3033 3035 3036 3037 3039 3040 3041 3042 3043 3045 3046 3047 3047 3049 3050 3051 3052 3053 3054 3054 3056 3057 3058 3059 3060 3061 3062 3062 3062 3063 3064
2987 2987 2988 2989 2990 2991 2992 2992 2992 2993 2995 2995 2995 2996 2996 2996 2996 2996 2996 2996 2997 2998 2999 2999 2999 3000 3001 3002 3003 3004 3005 3006 3006 3007 3007 3008 3009 3010 3011 3012 3012 3013 3014 3015 3016 3017 3018 3019 3020 3022 3023 3025 3026 3027 3028 3030 3031 3032 3034 3035 3036 3037 3038 3039 3041 3042 3043 3044 3045 3046 3047 3048 3050 3051 3051 3052 3053 3054 3055 3057 3058 3058 3059 3059 3060 3062
2983 2984 2984 2985 2985 2986 2987 2988 2989 2990 2990 2991 2992 2992 2991 2991 2992 2992 2992 2992 2993 2994 2995 2995 2996 2997 2997 2998 2999 3001 3002 3002 3002 3003 3004 3005 3006 3006 3007 3008 3008 3009 3010 3011 3012 3012 3014 3015 3017 3018 3019 3021 3022 3023 3025 3026 3027 3028 3030 3031 3032 3032 3034 3035 3037 3038 3039 3040 3041 3042 3044 3045 3046 3047 3047 3049 3050 3050 3052 3053 3054 3055 3056 3056 3057 3058
2979 2980 2981 2981 2981 2982 2982 2982 2983 2985 2987 2988 2989 2988 2988 2988 2989 2989 2988 2988 2989 2990 2991 2992 2992 2992 2993 2995 2996 2997 2997 2998 2998 2999 3000 3000 3001 3002 3003 3003 3004 3005 3006 3007 3008 3008 3010 3011 3013 3014 3016 3017 3018 3020 3021 3022 3023 3024 3025 3026 3027 3028 3030 3031 3032 3034 3035 3036 3037 3039 3040 3041 3042 3043 3043 3045 3046 3047 3048 3050 3051 3052 3053 3053 3054 3056
2975 2976 2976 2977 2977 2977 2977 2977 2978 2979 2981 2982 2984 2985 2987 2986 2986 2986 2986 2985 2985 2986 2987 2987 2987 2988 2989 2991 2992 2993 2993 2994 2994 2995 2995 2996 2997 2998 2999 3000 3000 3001 3002 3003 3004 3005 3006 3008 3009 3010 3012 3013 3014 3016 3017 3018 3019 3020 3021 3022 3023 3024 3026 3027 3028 3030 3031 3032 3034 3035 3036 3037 3038 3039 3040 3041 3042 3044 3045 3047 3048 3049 3050 3050 3051 3052
2970 2971 2971 2971 2971 2971 2972 2972 2973 2973 2973 2974 2975 2976 2976 2978 2980 2981 2982 2982 2982 2983 2984 2984 2983 2983 2985 2987 2988 2989 2990 2990 2990 2991 2991 2991 2992 2994 2996 2996 2997 2997 2999 2999 3000 3001 3003 3004 3005 3006 3007 3009 3010 3012 3013 3014 3015 3016 3017 3018 3019 3021 3022 3023 3025 3026 3027 3029 3030 3031 3032 3033 3035 3036 3037 3038 3039 3040 3041 3043 3045 3046 3047 3047 3048 3049
2965 2966 2966 2966 2966 2966 2966 2967 2967 2968 2968 2969 2970 2972 2972 2974 2974 2975 2976 2976 2977 2979 2981 2981 2981 2981 2981 2982 2984 2986 2987 2987 2987 2987 2987 2987 2989 2991 2992 2993 2993 2993 2994 2995 2996 2997 2999 3000 3001 3002 3004 3005 3007 3008 3009 3010 3011 3012 3013 3014 3015 3017 3018 3019 3021 3022 3023 3025 3026 3027 3028 3030 3031 3032 3033 3034 3035 3036 3037 3039 3041 3043 3044 3045 3046 3047
2961 2961 2961 2961 2960 2960 2960 2960 2961 2962 2963 2965 2967 2968 2969 2970 2970 2971 2972 2972 2972 2974 2975 2977 2978 2978 2978 2978 2980 2982 2983 2983 2983 2983 2984 2984 2986 2987 2989 2989 2989 2989 2990 2992 2993 2994 2996 2997 2998 2999 3001 3002 3003 3005 3006 3007 3007 3008 3009 3010 3012 3013 3014 3015 3017 3018 3020 3021 3022 3023 3025 3026 3027 3028 3029 3030 3032 3033 3034 3035 3037 3039 3040 3041 3042 3044
2958 2957 2957 2956 2956 2955 2954 2955 2956 2957 2960 2962 2962 2963 2964 2965 2965 2966 2967 2968 2970 2971 2971 2972 2973 2974 2975 2976 2977 2978 2980 2980 2980 2980 2981 2981 2982 2984 2985 2986 2986 2986 2987 2988 2989 2991 2992 2993 2995 2996 2997 2999 3000 3002 3002 3003 3004 3005 3006 3007 3008 3009 3010 3012 3013 3014 3016 3017 3018 3020 3021 3022 3023 3024 3026 3027 3028 3029 3030 3032 3033 3034 3036 3037 3039 3040
2955 2955 2955 2953 2952 2952 2952 2952 2953 2955 2957 2958 2958 2959 2960 2960 2961 2962 2963 2964 2966 2967 2967 2968 2969 2969 2970 2972 2973 2975 2977 2977 2977 2977 2977 2977 2978 2980 2982 2982 2982 2983 2984 2985 2986 2987 2989 2990 2992 2993 2995 2996 2997 2998 2999 3000 3000 3001 3002 3003 3004 3006 3007 3008 3010 3011 3012 3013 3015 3016 3017 3018 3020 3021 3022 3023 3024 3026 3027 3028 3029 3031 3032 3034 3035 3037
2952 2952 2952 2951 2951 2951 2950 2950 2951 2952 2953 2953 2954 2955 2955 2955 2956 2957 2958 2960 2961 2962 2963 2964 2965 2965 2965 2965 2965 2967 2971 2973 2974 2974 2973 2974 2975 2977 2978 2979 2979 2980 2980 2981 2982 2984 2985 2987 2988 2990 2992 2993 2994 2994 2995 2996 2997 2997 2998 3000 3001 3002 3003 3005 3006 3007 3009 3010 3011 3013 3014 3015 3017 3018 3019 3020 3021 3022 3023 3024 3026 3027 3028 3030 3032 3033
2948 2948 2948 2948 2948 2948 2947 2947 2947 2947 2948 2948 2949 2950 2951 2951 2952 2953 2954 2955 2956 2957 2958 2960 2961 2962 2962 2963 2963 2964 2965 2967 2968 2969 2970 2971 2971 2972 2974 2976 2976 2977 2977 2978 2980 2981 2982 2983 2985 2987 2988 2989 2989 2990 2991 2992 2992 2993 2995 2996 2997 2999 3000 3001 3003 3004 3006 3007 3008 3010 3011 3012 3013 3015 3016 3017 3018 3019 3020 3021 3022 3023 3025 3027 3028 3031
2943 2943 2944 2945 2945 2944 2943 2942 2942 2943 2943 2944 2945 2946 2947 2947 2948 2949 2949 2951 2952 2953 2954 2956 2957 2958 2959 2960 2961 2962 2962 2963 2964 2965 2966 2967 2967 2968 2970 2972 2973 2974 2974 2975 2977 2978 2979 2980 2981 2982 2983 2984 2985 2986 2987 2988 2989 2990 2991 2993 2994 2995 2997 2998 3000 3001 3003 3004 3006 3007 3008 3009 3011 3012 3013 3014 3015 3016 3017 3018 3019 3021 3022 3024 3026 3028
2938 2938 2939 2940 2941 2940 2940 2939 2939 2939 2939 2940 2941 2942 2942 2944 2945 2945 2946 2947 2948 2948 2950 2951 2952 2954 2955 2956 2957 2959 2960 2961 2962 2962 2963 2963 2963 2965 2967 2969 2970 2971 2971 2972 2974 2976 2977 2977 2978 2978 2979 2980 2981 2982 2983 2984 2986 2987 2988 2989 2991 2992 2994 2995 2997 2998 3000 3001 3002 3004 3005 3007 3008 3009 3010 3011 3012 3013 3014 3015 3017 3018 3020 3022 3024 3026
2933 2933 2934 2935 2936 2936 2936 2936 2936 2935 2935 2936 2936 2937 2938 2939 2940 2941 2942 2942 2943 2944 2945 2947 2948 2950 2951 2952 2953 2955 2956 2957 2958 2959 2960 2960 2960 2962 2964 2966 2967 2967 2968 2970 2971 2972 2973 2974 2974 2975 2975 2976 2977 2978 2980 2981 2982 2983 2985 2986 2988 2989 2991 2992 2994 2995 2997 2998 3000 3001 3002 3004 3005 3006 3007 3008 3009 3010 3012 3013 3014 3016 3018 3020 3021 3023
2928 2928 2929 2929 2930 2930 2931 2931 2931 2931 2931 2931 2932 2932 2933 2934 2935 2936 2937 2938 2939 2940 2941 2942 2944 2945 2946 2948 2949 2951 2952 2953 2954 2955 2956 2957 2957 2958 2960 2962 2963 2964 2965 2966 2968 2969 2970 2970 2971 2971 2972 2972 2974 2975 2977 2978 2979 2980 2982 2983 2985 2986 2988 2989 2991 2992 2994 2996 2997 2998 3000 3001 3002 3003 3004 3005 3006 3007 3009 3010 3012 3013 3015 3017 3019 3021
2923 2923 2923 2924 2924 2925 2925 2925 2926 2926 2926 2927 2927 2928 2929 2930 2931 2932 2932 2933 2934 2935 2936 2937 2939 2940 2941 2943 2945 2947 2947 2949 2950 2952 2952 2953 2953 2955 2956 2958 2960 2960 2961 2962 2964 2965 2966 2967 2967 2968 2968 2969 2971 2972 2973 2974 2976 2977 2978 2980 2982 2983 2985 2986 2988 2989 2991 2992 2994 2996 2997 2998 3000 3001 3002 3003 3004 3005 3006 3008 3009 3011 3013 3015 3017 3018
2917 2918 2918 2919 2919 2919 2920 2920 2921 2921 2922 2922 2922 2923 2924 2926 2927 2928 2928 2929 2929 2930 2932 2933 2934 2935 2937 2939 2940 2942 2943 2945 2946 2947 2948 2949 2950 2951 2952 2954 2956 2957 2957 2958 2960 2961 2962 2963 2963 2964 2965 2966 2967 2969 2970 2971 2972 2974 2975 2977 2978 2980 2982 2983 2985 2986 2988 2989 2991 2993 2994 2996 2997 2998 2999 3000 3001 3002 3004 3005 3007 3009 3011 3013 3015 3016
2912 2913 2913 2913 2914 2914 2915 2915 2915 2916 2916 2917 2918 2919 2920 2922 2923 2924 2924 2924 2925 2927 2928 2928 2930 2931 2933 2934 2935 2937 2939 2941 2942 2943 2943 2945 2945 2946 2947 2950 2951 2952 2953 2954 2955 2957 2958 2959 2960 2961 2962 2963 2964 2965 2967 2968 2969 2971 2972 2974 2975 2977 2978 2980 2982 2983 2985 2986 2988 2990 2991 2992 2994 2995 2997 2998 2999 3000 3002 3003 3005 3007 3008 3010 3012 3013
2908 2908 2908 2908 2908 2909 2910 2911 2911 2911 2911 2912 2912 2914 2915 2917 2919 2919 2920 2921 2922 2924 2924 2924 2925 2927 2928 2929 2931 2932 2935 2937 2937 2938 2939 2940 2940 2941 2943 2945 2947 2948 2949 2949 2951 2952 2953 2955 2956 2957 2959 2960 2961 2962 2963 2965 2966 2967 2969 2970 2972 2974 2975 2977 2978 2980 2982 2983 2985 2987 2988 2990 2991 2992 2994 2995 2996 2997 2999 3001 3002 3004 3006 3007 3008 3010
2904 2904 2904 2904 2904 2904 2905 2906 2906 2907 2907 2907 2908 2909 2910 2912 2913 2914 2915 2917 2920 2920 2920 2921 2922 2923 2924 2925 2927 2928 2930 2932 2933 2935 2936 2936 2936 2937 2939 2941 2942 2943 2944 2945 2946 2947 2948 2950 2952 2954 2956 2957 2958 2959 2961 2962 2963 2964 2966 2967 2969 2970 2972 2973 2975 2977 2978 2980 2982 2983 2985 2987 2988 2990 2991 2992 2994 2995 2996 2998 2999 3001 3003 3004 3005 3006
2900 2900 2900 2900 2900 2900 2900 2901 2901 2902 2902 2903 2904 2904 2905 2907 2908 2909 2911 2913 2915 2916 2917 2918 2919 2920 2920 2921 2922 2924 2926 2928 2930 2931 2932 2932 2932 2933 2935 2937 2938 2938 2940 2942 2942 2943 2944 2946 2948 2951 2952 2954 2955 2957 2958 2959 2960 2961 2962 2964 2966 2967 2969 2970 2972 2973 2975 2977 2978 2980 2982 2983 2985 2987 2988 2990 2991 2992 2993 2995 2996 2997 2999 3000 3002 3003
2897 2897 2896 2896 2896 2896 2897 2896 2897 2897 2898 2898 2899 2900 2901 2902 2903 2905 2906 2908 2909 2911 2912 2914 2915 2916 2917 2917 2918 2919 2921 2924 2926 2927 2927 2928 2928 2928 2931 2933 2934 2934 2936 2937 2938 2939 2940 2942 2944 2947 2949 2951 2952 2954 2955 2956 2957 2958 2959 2961 2962 2964 2966 2967 2968 2970 2971 2973 2975 2977 2978 2980 2982 2983 2985 2987 2988 2989 2990 2992 2992 2994 2995 2997 2998 3000
2893 2893 2893 2892 2892 2893 2893 2893 2893 2893 2894 2894 2894 2895 2896 2897 2898 2900 2901 2903 2904 2906 2907 2909 2911 2912 2913 2914 2914 2916 2917 2920 2921 2922 2922 2922 2923 2924 2927 2928 2930 2931 2932 2933 2934 2935 2936 2938 2940 2942 2944 2946 2948 2950 2951 2953 2954 2955 2956 2958 2959 2961 2962 2964 2965 2967 2968 2970 2972 2973 2975 2977 2978 2980 2982 2983 2985 2986 2987 2988 2989 2990 2992 2993 2995 2997
2890 2890 2890 2889 2889 2889 2889 2889 2890 2890 2890 2890 2891 2891 2892 2892 2893 2895 2896 2898 2899 2901 2903 2904 2906 2907 2909 2910 2911 2912 2914 2916 2917 2918 2918 2918 2919 2920 2922 2924 2926 2927 2928 2930 2931 2932 2933 2934 2936 2938 2940 2942 2943 2945 2947 2949 2950 2952 2953 2954 2956 2957 2959 2960 2962 2963 2965 2966 2968 2970 2972 2973 2975 2977 2978 2980 2982 2983 2984 2985 2986 2987 2989 2990 2992 2994
2888 2887 2887 2887 2886 2886 2886 2886 2886 2887 2887 2887 2887 2888 2888 2889 2889 2890 2891 2892 2894 2896 2897 2899 2901 2903 2904 2905 2906 2908 2910 2912 2913 2915 2915 2915 2915 2916 2918 2920 2922 2923 2925 2926 2927 2928 2929 2931 2933 2935 2936 2938 2940 2941 2943 2945 2947 2948 2950 2951 2952 2954 2956 2957 2958 2960 2962 2963 2965 2967 2968 2970 2972 2973 2975 2977 2978 2980 2981 2982 2983 2985 2987 2988 2990 2992
2886 2885 2884 2884 2884 2883 2883 2883 2883 2883 2883 2884 2884 2884 2885 2885 2886 2886 2887 2887 2888 2890 2892 2893 2895 2897 2899 2901 2902 2903 2905 2907 2908 2909 2910 2912 2912 2913 2914 2915 2917 2919 2921 2922 2923 2925 2926 2927 2929 2931 2932 2934 2936 2938 2939 2941 2943 2945 2946 2948 2949 2951 2952 2954 2955 2957 2958 2960 2962 2963 2965 2967 2968 2970 2972 2973 2975 2977 2978 2980 2981 2982 2984 2986 2988 2990
2883 2882 2882 2882 2881 2881 2881 2881 2881 2881 2881 2881 2881 2881 2881 2882 2882 2882 2883 2883 2884 2885 2886 2887 2889 2891 2894 2896 2897 2899 2901 2902 2904 2904 2905 2906 2907 2909 2911 2911 2913 2915 2917 2918 2919 2921 2922 2924 2925 2927 2928 2930 2932 2934 2936 2938 2940 2941 2943 2944 2946 2948 2949 2951 2952 2954 2955 2957 2958 2960 2962 2964 2965 2967 2969 2971 2973 2975 2976 2977 2979 2980 2982 2984 2986 2988
2881 2881 2880 2879 2879 2879 2878 2878 2878 2878 2878 2878 2878 2878 2878 2878 2879 2879 2879 2880 2880 2881 2882 2882 2884 2886 2888 2890 2892 2894 2896 2898 2899 2899 2899 2900 2902 2904 2906 2907 2909 2911 2912 2913 2915 2917 2918 2920 2921 2923 2924 2926 2928 2931 2933 2935 2936 2937 2939 2941 2943 2945 2946 2947 2949 2951 2952 2954 2955 2957 2959 2961 2962 2964 2966 2968 2970 2972 2973 2975 2977 2978 2980 2982 2984 2986
2879 2879 2878 2878 2877 2877 2877 2876 2876 2876 2876 2876 2875 2875 2876 2876 2876 2876 2876 2876 2877 2877 2877 2878 2879 2881 2882 2884 2886 2888 2891 2893 2894 2894 2895 2896 2897 2898 2901 2903 2905 2907 2908 2909 2911 2912 2914 2915 2917 2919 2921 2923 2925 2927 2929 2931 2932 2934 2936 2937 2939 2941 2943 2945 2946 2947 2949 2951 2952 2954 2956 2957 2959 2961 2963 2965 2966 2967 2969 2971 2972 2974 2976 2978 2981 2984
2878 2877 2877 2876 2876 2875 2875 2874 2874 2874 2874 2873 2873 2873 2873 2873 2873 2873 2873 2873 2873 2873 2874 2874 2875 2876 2877 2879 2881 2883 2885 2887 2889 2890 2891 2891 2892 2893 2895 2897 2900 2902 2903 2905 2906 2907 2909 2911 2913 2915 2917 2919 2921 2923 2925 2927 2929 2931 2932 2934 2935 2937 2939 2941 2943 2944 2946 2947 2949 2951 2952 2954 2956 2958 2959 2961 2962 2964 2965 2967 2969 2971 2972 2974 2976 2979
2876 2876 2875 2875 2875 2874 2873 2873 2872 2872 2872 2872 2871 2871 2871 2871 2871 2870 2871 2871 2871 2871 2870 2871 2871 2872 2873 2875 2876 2878 2879 2881 2883 2884 2886 2887 2887 2888 2890 2892 2894 2897 2899 2900 2901 2902 2904 2907 2909 2911 2913 2915 2917 2919 2921 2923 2925 2927 2928 2930 2931 2933 2935 2938 2940 2941 2943 2945 2946 2948 2949 2951 2953 2954 2956 2958 2959 2961 2963 2965 2966 2968 2969 2971 2972 2974
2874 2874 2874 2873 2873 2873 2872 2872 2872 2871 2871 2870 2870 2869 2869 2868 2868 2868 2868 2868 2868 2868 2867 2867 2868 2869 2870 2871 2872 2873 2875 2876 2877 2878 2880 2881 2882 2884 2886 2887 2889 2891 2893 2895 2896 2898 2900 2902 2904 2907 2909 2911 2913 2915 2917 2919 2921 2923 2924 2926 2927 2930 2932 2934 2936 2938 2940 2941 2943 2945 2947 2948 2949 2951 2953 2955 2957 2958 2960 2962 2964 2965 2967 2969 2970 2972
2873 2872 2872 2872 2872 2871 2871 2871 2870 2870 2869 2869 2868 2868 2867 2867 2867 2866 2866 2866 2866 2866 2865 2865 2865 2866 2866 2867 2868 2869 2870 2871 2872 2873 2875 2876 2877 2879 2881 2882 2884 2886 2888 2889 2891 2893 2895 2898 2900 2902 2904 2907 2908 2910 2912 2915 2917 2919 2921 2922 2924 2926 2927 2929 2931 2934 2936 2938 2939 2941 2943 2945 2946 2948 2950 2952 2954 2956 2957 2959 2961 2962 2964 2966 2968 2970
2871 2871 2870 2870 2870 2870 2869 2869 2868 2868 2868 2867 2867 2866 2866 2865 2865 2864 2864 2864 2864 2863 2863 2863 2863 2863 2863 2864 2865 2866 2867 2868 2868 2870 2871 2872 2873 2874 2876 2877 2879 2881 2883 2884 2886 2888 2890 2893 2895 2897 2900 2902 2904 2905 2907 2910 2913 2915 2917 2919 2920 2921 2922 2923 2927 2930 2932 2934 2936 2938 2940 2942 2943 2946 2947 2949 2951 2952 2954 2955 2957 2959 2961 2963 2965 2967
2869 2868 2868 2868 2868 2868 2867 2867 2867 2867 2866 2866 2865 2865 2864 2864 2864 2863 2862 2862 2862 2862 2861 2861 2861 2861 2861 2861 2862 2862 2864 2865 2865 2866 2867 2868 2869 2870 2871 2872 2874 2876 2877 2879 2881 2883 2886 2888 2890 2892 2895 2897 2899 2901 2903 2906 2908 2911 2913 2915 2917 2918 2919 2921 2923 2926 2928 2930 2932 2934 2937 2938 2940 2942 2944 2946 2947 2948 2950 2952 2953 2955 2957 2960 2962 2964
2867 2867 2866 2866 2866 2866 2865 2865 2865 2865 2864 2864 2863 2863 2863 2862 2862 2862 2861 2860 2860 2859 2859 2859 2859 2859 2858 2858 2859 2860 2861 2862 2862 2862 2863 2864 2865 2866 2867 2868 2869 2870 2872 2874 2876 2878 2881 2883 2886 2888 2890 2892 2894 2895 2898 2901 2904 2907 2909 2911 2913 2915 2916 2917 2919 2921 2923 2926 2928 2930 2933 2935 2937 2938 2940 2941 2943 2945 2947 2948 2950 2952 2954 2956 2958 2960
2865 2865 2864 2864 2864 2863 2863 2863 2862 2862 2862 2862 2861 2861 2861 2860 2860 2859 2859 2858 2858 2858 2857 2857 2857 2857 2856 2856 2857 2857 2858 2858 2858 2859 2860 2861 2862 2862 2863 2864 2865 2866 2868 2870 2871 2873 2876 2879 2881 2884 2886 2887 2888 2890 2893 2897 2900 2902 2905 2907 2909 2911 2912 2913 2914 2916 2919 2921 2924 2927 2929 2931 2933 2934 2936 2937 2940 2942 2944 2945 2947 2949 2951 2953 2955 2957
2863 2862 2862 2862 2862 2861 2861 2860 2860 2860 2859 2859 2859 2859 2858 2858 2857 2857 2857 2857 2856 2856 2855 2855 2855 2854 2854 2854 2854 2854 2854 2854 2855 2857 2857 2858 2858 2859 2860 2860 2861 2862 2864 2865 2867 2869 2871 2873 2876 2879 2882 2883 2884 2886 2888 2892 2895 2897 2900 2902 2905 2907 2908 2910 2911 2913 2915 2917 2919 2922 2924 2926 2928 2930 2932 2934 2937 2938 2940 2942 2944 2946 2948 2950 2952 2955
2861 2860 2860 2860 2859 2859 2858 2858 2857 2857 2857 2856 2856 2856 2856 2856 2855 2855 2854 2854 2854 2854 2853 2853 2852 2852 2852 2852 2852 2852 2852 2852 2852 2853 2854 2855 2855 2855 2856 2857 2858 2858 2860 2861 2862 2864 2866 2867 2870 2873 2876 2879 2881 2882 2884 2887 2890 2892 2896 2898 2900 2902 2904 2906 2908 2909 2911 2912 2915 2917 2920 2922 2924 2926 2928 2931 2933 2934 2936 2938 2941 2943 2945 2947 2949 2952
2859 2858 2858 2857 2857 2856 2856 2856 2855 2855 2854 2854 2853 2853 2853 2853 2852 2852 2852 2851 2851 2851 2851 2851 2850 2850 2850 2849 2849 2849 2849 2849 2849 2850 2851 2851 2852 2852 2853 2853 2854 2855 2856 2856 2857 2859 2861 2863 2865 2867 2870 2873 2876 2879 2880 2882 2885 2888 2891 2893 2895 2897 2900 2902 2904 2906 2907 2909 2911 2913 2916 2918 2921 2924 2926 2927 2929 2931 2933 2935 2937 2940 2942 2944 2946 2948
2857 2857 2856 2855 2855 2854 2854 2853 2853 2852 2852 2851 2851 2850 2850 2850 2849 2849 2849 2849 2848 2848 2848 2848 2848 2848 2847 2847 2847 2847 2847 2847 2847 2847 2847 2847 2848 2848 2849 2850 2851 2852 2852 2853 2854 2855 2857 2859 2861 2862 2865 2867 2871 2874 2877 2878 2881 2883 2886 2888 2891 2893 2896 2898 2900 2902 2904 2905 2907 2909 2911 2914 2917 2919 2921 2923 2926 2928 2930 2932 2934 2936 2939 2941 2943 2946